Location: *
(49.5667°N, 1.3667°W)
Time: 13:27:00
(UTC+00:00)

ARGOS - Pass Details

Date: 20 September 2019
Orbit: 821 x 834 km, 98.5° (Epoch: 21 October)

Event Time Altitude Azimuth Distance (km) Brightness Sun altitude
Exits shadow 18:35:08 - 117° (ESE) 2,940 5.4 -5.1°
Reaches altitude 10° 18:36:44 10° 108° (ESE) 2,426 4.9 -5.4°
Maximum altitude 18:40:50 23° 58° (ENE) 1,701 4.4 -6.0°
Drops below altitude 10° 18:44:57 10° 8° (N) 2,444 5.6 -6.7°
Sets 18:47:45 0° 355° (N) 3,384 6.5 -7.1°
